[[{"header":{"parameterUnit":"m.s-1","parameterCategory":1,"la1":30.2991,"la2":30.254,"lo1":-89.0895,"lo2":-89.0444,"dy":0.0017,"dx":0.0017,"nx":28,"ny":28,"refTime":"2024-08-30T21:00:00:Z","depth":0,"parameterNumber":2,"parameterNumberName":"U-component_of_WINDS"},"data":[0,0,0,0,0,0,0,0,0,0,0,0,0,0,0,0,0,0,0,0,0,0,0,0,0,0,0,0,0,0,0,0,0,0,0,0,0,0,0,0,0,0,0,0,0,0,0,0,0,0,0,0,0,0,0,0,0,0,-4.9133,-4.9133,0,-4.9152,-4.9152,-4.9152,-4.9048,-4.9045,-4.9042,-4.9039,-4.9057,-4.906,-4.9063,0,0,0,0,0,0,0,0,0,0,0,0,0,-4.9005,-4.9008,-4.9133,-4.9133,-4.9133,-4.9152,-4.9152,-4.9152,-4.9048,-4.9045,-4.9041,-4.9038,-4.9056,-4.9059,-4.9063,0,0,0,0,0,0,0,0,0,0,0,0,0,-4.9046,-4.9009,-4.9133,-4.9084,-4.908,-4.9152,-4.9152,-4.9152,-4.9049,-4.9045,-4.904,-4.9036,-4.9054,-4.9059,-4.9064,-4.9183,0,0,-4.9079,-4.9081,0,0,0,0,0,0,0,0,-4.9044,-4.9051,-4.9091,-4.9087,-4.9083,-4.9093,-4.9113,-4.9163,-4.905,-4.9061,-4.9039,-4.9034,-4.9072,-4.9075,-4.9089,-4.9184,-4.9185,-4.9079,-4.9082,-4.9084,-4.9085,0,0,0,0,0,0,0,-4.9041,-4.9049,-4.914,-4.9092,-4.9087,-4.906,-4.9061,-4.9122,-4.9091,-4.906,-4.9052,-4.9056,-4.9069,-4.9084,-4.9088,-4.9185,-4.9079,-4.9083,-4.9086,-4.9088,-4.9376,-4.938,0,0,0,0,0,0,-4.9045,-4.9048,-4.914,-4.9141,-4.9052,-4.9066,-4.9067,-4.9094,-4.909,-4.9085,-4.906,-4.9051,-4.9078,-4.9083,-4.9088,-4.9224,-4.9084,-4.9089,-4.9091,-4.9371,-4.9377,-4.9382,0,0,0,0,0,0,-4.9043,-4.9054,-4.9139,-4.9092,-4.9101,-4.9073,-4.9104,-4.9097,-4.9112,-4.909,-4.9084,-4.9081,-4.9075,-4.9082,-4.916,-4.9224,-4.9091,-4.9095,-4.9366,-4.9373,-4.9379,-4.95,0,0,0,0,0,0,-4.9039,-4.9054,-4.9099,-4.9094,-4.9104,-4.9211,-4.9108,-4.9101,-4.9121,-4.9109,-4.9108,-4.9104,-4.9072,-4.9153,-4.9165,-4.9228,-4.9099,-4.936,-4.9369,-4.9377,-4.949,-4.951,-4.9527,0,0,0,0,0,-4.9035,-4.9133,-4.9102,-4.9114,-4.916,-4.9215,-4.922,-4.9182,-4.9126,-4.9171,-4.9157,-4.9104,-4.9216,-4.9162,-4.9174,-4.924,-4.9355,-4.9366,-4.9377,-4.9481,-4.9506,-4.9527,0,0,0,0,0,0,-4.9146,-4.9131,-4.9097,-4.9196,-4.9208,-4.9197,-4.9252,-4.921,-4.9236,-4.9224,-4.9175,-4.9176,-4.9262,-4.9259,-4.9199,-4.9354,-4.9276,-4.9289,-4.9351,-4.9375,-4.9393,-4.939,-4.9103,0,0,0,0,0,-4.9182,-4.9228,-4.9213,-4.9301,-4.9309,-4.928,-4.9303,-4.9272,-4.9281,-4.9285,-4.9277,-4.9288,-4.9325,-4.9351,-4.9384,-4.9491,-4.9487,-4.9542,-4.9561,-4.9576,-4.9587,-4.964,-4.9663,-4.9417,-4.9417,-4.9417,0,0,-4.9256,-4.9254,-4.9286,-4.9324,-4.9329,-4.9376,-4.9285,-4.9339,-4.9373,-4.9293,-4.9365,-4.9361,-4.9369,-4.9461,-4.9502,-4.9462,-4.9655,-4.959,-4.9602,-4.9605,-4.9653,-4.9677,-4.9697,-4.9424,-4.9423,-4.9422,0,0,-4.9415,-4.942,-4.9492,-4.95,-4.9509,-4.9489,-4.9507,-4.9504,-4.9497,-4.9569,-4.9509,-4.955,-4.9616,-4.9623,-4.9636,-4.9799,-4.9749,-4.9812,-4.9907,-4.996,-4.9979,-4.9996,-5.005,-5.007,-4.9823,-4.9824,-4.9824,0,-4.9505,-4.9575,-4.9535,-4.9593,-4.961,-4.9542,-4.9613,-4.9623,-4.9643,-4.9655,-4.9612,-4.9692,-4.9693,-4.9784,-4.9824,-4.9838,-4.9854,-4.9809,-4.998,-4.9996,-5.0011,-5.0062,-5.0083,-4.9831,-4.983,-4.9829,-4.9829,0,-4.9684,-4.9734,-4.9791,-4.9812,-4.9836,-4.9901,-4.987,-4.9899,-4.9868,-4.9852,-4.9925,-4.9925,-4.9956,-4.9977,-4.9946,-5.0063,-5.0038,-4.9989,-4.9908,-5.0042,-5.0089,-5.0109,-4.9841,-4.9838,-4.9836,-4.9834,0,0,-4.9909,-4.9908,-4.9929,-4.9936,-4.9942,-4.9979,-5.0041,-5.0071,-5.0096,-5.0113,-5.0161,-5.0219,-5.0173,-5.0187,-5.0158,-5.0204,-5.0329,-5.0148,-5.0147,-5.0178,-5.0453,-5.0487,-5.051,-5.0298,-5.0302,-5.0305,-5.0451,0,-5.0061,-5.0165,-5.0131,-5.0237,-5.028,-5.0216,-5.027,-5.0279,-5.0267,-5.0301,-5.0288,-5.0328,-5.0266,-5.0274,-5.0318,-5.0304,-5.0382,-5.0294,-5.034,-5.0342,-5.0334,-5.0535,-5.0571,-5.0709,-5.0469,-5.0473,-5.0475,0,-5.025,-5.0274,-5.0384,-5.0381,-5.0397,-5.0446,-5.047,-5.0505,-5.0514,-5.0502,-5.0519,-5.0479,-5.0538,-5.0462,-5.0541,-5.0482,-5.0499,-5.0496,-5.05,-5.0498,-5.0413,-5.0535,-5.0752,-5.0771,-5.0504,-5.0502,-5.05,0,-5.0398,-5.0458,-5.053,-5.0539,-5.0539,-5.0574,-5.0575,-5.0579,-5.06,-5.0622,-5.0633,-5.0663,-5.0677,-5.07,-5.0669,-5.0617,-5.0752,-5.0674,-5.074,-5.0741,-5.0767,-5.0765,-5.0985,-5.0787,-5.0787,-5.0787,-5.0786,0,-5.0567,-5.0635,-5.0596,-5.064,-5.0714,-5.0676,-5.075,-5.0744,-5.0749,-5.079,-5.0739,-5.0778,-5.0737,-5.0772,-5.0749,-5.0816,-5.0824,-5.0814,-5.0806,-5.0816,-5.0816,-5.0822,-5.081,-5.0792,-5.0791,-5.079,-5.0789,0,-5.0742,-5.0719,-5.0792,-5.0787,-5.0787,-5.0841,-5.0835,-5.0875,-5.0861,-5.0913,-5.0923,-5.09,-5.0939,-5.0911,-5.0951,-5.0935,-5.1021,-5.1003,-5.1018,-5.1011,-5.1077,-5.107,-5.1305,-5.1333,-5.1122,-5.1124,-5.1126,0,-5.0849,-5.09,-5.0899,-5.0923,-5.0928,-5.0967,-5.0987,-5.0952,-5.0975,-5.0988,-5.1026,-5.1061,-5.1086,-5.1151,-5.1137,-5.1167,-5.1145,-5.1226,-5.1149,-5.1156,-5.114,-5.1135,-5.1139,-5.1239,-5.1242,-5.1244,-5.1246,0,-5.104,-5.1026,-5.1057,-5.1084,-5.111,-5.113,-5.1145,-5.1168,-5.1132,-5.116,-5.1199,-5.1219,-5.1259,-5.1293,-5.1317,-5.1318,-5.1275,-5.1271,-5.1287,-5.1295,-5.1299,-5.1293,-5.1055,-5.1264,-5.1263,-5.1261,-5.126,-5.1259,-5.118,-5.1221,-5.1227,-5.1263,-5.1271,-5.1287,-5.1323,-5.1314,-5.1346,-5.1375,-5.1353,-5.1399,-5.1406,-5.1434,-5.144,-5.1474,-5.1441,-5.1465,-5.147,-5.1476,-5.1483,-5.1299,-5.1479,-5.1479,-5.1478,-5.1478,-5.1477,0,-5.1364,-5.1365,-5.1399,-5.1422,-5.145,-5.141,-5.1425,-5.1451,-5.1492,-5.1502,-5.1528,-5.1573,-5.1606,-5.1595,-5.1624,-5.1654,-5.1635,-5.1662,-5.1657,-5.1657,-5.1513,-5.1494,-5.1677,-5.1677,-5.1677,-5.1677,-5.1677,-5.1677,-5.1462,-5.1529,-5.1516,-5.1585,-5.1586,-5.163,-5.1642,-5.1655,-5.1663,-5.1715,-5.1742,-5.1735,-5.1737,-5.1766,-5.1794,-5.179,-5.18,-5.1834,-5.1823,-5.1687,-5.1667,-5.1648,-5.163,-5.1838,-5.1838,-5.1962,-5.1964,-5.1964]},{"header":{"parameterUnit":"m.s-1","parameterCategory":1,"la1":30.2991,"la2":30.254,"lo1":-89.0895,"lo2":-89.0444,"dy":0.0017,"dx":0.0017,"nx":28,"ny":28,"refTime":"2024-08-30T21:00:00:Z","depth":0,"parameterNumber":3,"parameterNumberName":"V-component_of_WINDS"},"data":[0,0,0,0,0,0,0,0,0,0,0,0,0,0,0,0,0,0,0,0,0,0,0,0,0,0,0,0,0,0,0,0,0,0,0,0,0,0,0,0,0,0,0,0,0,0,0,0,0,0,0,0,0,0,0,0,0,0,1.1166,1.1166,0,1.1202,1.1202,1.1203,1.1217,1.1216,1.1216,1.1216,1.1252,1.1253,1.1254,0,0,0,0,0,0,0,0,0,0,0,0,0,1.1108,1.1109,1.1166,1.1166,1.1167,1.1202,1.1202,1.1203,1.1217,1.1216,1.1216,1.1216,1.1252,1.1253,1.1254,0,0,0,0,0,0,0,0,0,0,0,0,0,1.1138,1.111,1.1166,1.1178,1.1179,1.1202,1.1202,1.1203,1.1217,1.1216,1.1216,1.1216,1.1251,1.1253,1.1254,1.1267,0,0,1.1259,1.126,0,0,0,0,0,0,0,0,1.1136,1.114,1.1176,1.1177,1.1179,1.1205,1.1195,1.1224,1.1217,1.1202,1.1216,1.1216,1.1236,1.1239,1.1246,1.1269,1.127,1.1259,1.126,1.1261,1.1261,0,0,0,0,0,0,0,1.1134,1.1138,1.118,1.1176,1.1178,1.1181,1.1185,1.1201,1.122,1.1204,1.1205,1.1209,1.1237,1.1245,1.1247,1.1271,1.1259,1.1261,1.1262,1.1262,1.1307,1.1307,0,0,0,0,0,0,1.113,1.1137,1.1179,1.1181,1.1157,1.1182,1.1187,1.1196,1.122,1.1223,1.1209,1.1209,1.1242,1.1245,1.1248,1.1265,1.1261,1.1262,1.1263,1.1307,1.1307,1.1307,0,0,0,0,0,0,1.1129,1.1134,1.1177,1.1159,1.1165,1.1184,1.1194,1.1197,1.1205,1.1224,1.1227,1.1213,1.1242,1.1246,1.1263,1.1267,1.1263,1.1264,1.1306,1.1307,1.1307,1.1299,0,0,0,0,0,0,1.1127,1.1133,1.1138,1.1159,1.1166,1.1191,1.1194,1.1198,1.1207,1.1208,1.1228,1.1232,1.1242,1.126,1.1264,1.1269,1.1266,1.1306,1.1306,1.1307,1.1299,1.1299,1.1299,0,0,0,0,0,1.1125,1.1134,1.1138,1.1143,1.1173,1.1191,1.1195,1.1207,1.1208,1.1213,1.1225,1.1231,1.1266,1.1262,1.1266,1.1272,1.1306,1.1306,1.1307,1.1299,1.1299,1.1299,0,0,0,0,0,0,1.1112,1.1137,1.1142,1.1158,1.1173,1.1194,1.12,1.1207,1.1221,1.1221,1.1236,1.124,1.1256,1.1265,1.126,1.1286,1.1286,1.1288,1.1279,1.1279,1.1279,1.1276,1.1267,0,0,0,0,0,1.1111,1.1125,1.1145,1.1158,1.1165,1.1181,1.119,1.1198,1.1214,1.122,1.1233,1.1248,1.1262,1.1271,1.1285,1.1301,1.1306,1.1307,1.1307,1.1307,1.1308,1.1317,1.1318,1.1309,1.1309,1.1309,0,0,1.1109,1.1125,1.1132,1.1156,1.1168,1.1181,1.1186,1.12,1.121,1.1222,1.1238,1.1249,1.1266,1.1282,1.129,1.1291,1.1312,1.1307,1.1307,1.1308,1.1318,1.1319,1.132,1.1309,1.1309,1.1309,0,0,1.1113,1.1126,1.1138,1.115,1.1169,1.118,1.1183,1.1203,1.1211,1.1228,1.1237,1.125,1.1274,1.1286,1.1295,1.1305,1.1311,1.1309,1.1309,1.1319,1.1319,1.132,1.1324,1.1325,1.131,1.131,1.131,0,1.1108,1.1129,1.1143,1.1157,1.1167,1.1179,1.1191,1.1202,1.1225,1.1231,1.1232,1.1264,1.1276,1.1296,1.1298,1.1305,1.1309,1.1307,1.1318,1.1319,1.132,1.1324,1.1325,1.131,1.131,1.131,1.131,0,1.1122,1.1137,1.1144,1.1166,1.1177,1.119,1.1206,1.1216,1.1224,1.1235,1.1253,1.1268,1.1286,1.1291,1.1299,1.1312,1.1312,1.1316,1.1316,1.132,1.1324,1.1326,1.1309,1.131,1.131,1.131,0,0,1.1118,1.1148,1.1151,1.1161,1.1184,1.1195,1.1209,1.1227,1.1235,1.125,1.1262,1.1283,1.1287,1.1297,1.1306,1.1315,1.1322,1.1317,1.1318,1.1317,1.1339,1.1336,1.1337,1.1326,1.1327,1.1327,1.1337,0,1.1125,1.115,1.1163,1.1183,1.1197,1.1209,1.1221,1.1236,1.1247,1.1261,1.1273,1.1288,1.1291,1.1297,1.1306,1.1319,1.1326,1.1319,1.1338,1.1338,1.1333,1.1339,1.1336,1.1345,1.1339,1.1339,1.1339,0,1.1135,1.1151,1.1173,1.1194,1.12,1.1211,1.1229,1.1242,1.1259,1.1267,1.128,1.1289,1.1304,1.1304,1.1325,1.132,1.1329,1.1336,1.1337,1.1339,1.1339,1.1341,1.1348,1.135,1.1342,1.1341,1.1341,0,1.113,1.1157,1.1174,1.1182,1.1207,1.1215,1.1226,1.1243,1.1254,1.127,1.1277,1.1294,1.1303,1.1317,1.133,1.1329,1.1351,1.1352,1.1357,1.1357,1.1361,1.136,1.1369,1.1367,1.1367,1.1367,1.1367,0,1.1136,1.1149,1.1172,1.1182,1.1196,1.1212,1.1226,1.1238,1.1254,1.1266,1.1278,1.1289,1.1307,1.1321,1.1332,1.1348,1.1352,1.1359,1.1361,1.1358,1.1357,1.1363,1.1363,1.1367,1.1367,1.1367,1.1367,0,1.1133,1.1149,1.1167,1.119,1.1197,1.1206,1.1226,1.1236,1.1249,1.1265,1.1269,1.1288,1.1305,1.1321,1.1343,1.135,1.1367,1.1371,1.1361,1.1363,1.1368,1.1367,1.1381,1.1384,1.1379,1.1379,1.1379,0,1.1135,1.1146,1.117,1.118,1.1191,1.1206,1.1217,1.1233,1.1244,1.1265,1.1273,1.1291,1.1306,1.1333,1.1349,1.1366,1.137,1.1374,1.1373,1.1369,1.137,1.137,1.1371,1.1374,1.1374,1.1374,1.1374,0,1.1139,1.1146,1.1162,1.118,1.1193,1.1209,1.1224,1.1231,1.125,1.1262,1.128,1.1292,1.1316,1.1334,1.1353,1.1364,1.1372,1.1374,1.1376,1.1372,1.1367,1.137,1.1361,1.1373,1.1373,1.1373,1.1373,1.1373,1.1139,1.1148,1.1167,1.1185,1.1198,1.1213,1.1224,1.1238,1.1253,1.1274,1.1283,1.1301,1.1319,1.1346,1.1358,1.1372,1.1374,1.1377,1.1378,1.1378,1.1378,1.1365,1.1376,1.1376,1.1376,1.1376,1.1376,0,1.1142,1.1156,1.1171,1.1193,1.1207,1.1214,1.1232,1.1243,1.1259,1.1275,1.129,1.1311,1.1329,1.1347,1.1366,1.1374,1.1378,1.1378,1.1378,1.138,1.1375,1.1371,1.1375,1.1375,1.1375,1.1375,1.1375,1.1375,1.1146,1.1163,1.1173,1.1198,1.1211,1.1229,1.1239,1.1253,1.1266,1.1289,1.1304,1.1316,1.1333,1.1353,1.137,1.1375,1.1381,1.138,1.1386,1.1381,1.1381,1.1381,1.1377,1.1382,1.1382,1.139,1.139,1.139]}]]